Location: Red Bud (historical)
(37.7759°N, 88.4053°W)
Time: 23:40:31
(UTC+00:00)

NOSS 3-3 (A) - Pass Details

Date: 29 October 2020
Orbit: 826 x 1387 km, 63.4° (Epoch: 22 November)

Event Time Altitude Azimuth Distance (km) Brightness Sun altitude
Rises 23:22:03 0° 195° (SSW) 3,361 7.2 -5.5°
Reaches altitude 10° 23:24:29 10° 190° (S) 2,456 6.4 -6.0°
Maximum altitude 23:29:53 50° 116° (ESE) 1,121 4.1 -7.0°
Drops below altitude 10° 23:35:53 10° 42° (NE) 2,716 5.9 -8.2°
Enters shadow 23:38:34 - 38° (NE) 3,711 6.6 -8.7°
